Wind_Gust
12 13 10 12 13 14 15 17 24 24 23 31 30 29 30 17 19 19 14 16 23 13 14 13 12 13 20 21 22 22 20 23 18 26 20 14 11 17 19 16 27 29 30 31 32 34 32 27 24 25 25 25 25 25 25 26 25 23 22 21 22 23 22 22 23 22 22 22 22 22 23 23 22 20 20 19 19 18 18 19 19 20 20 20 20 20 20 19 19 19 19 18 18 19 19 19 18
12 10 10 11 14 15 20 13 31 29 27 29 32 24 21 16 15 18 18 18 21 23 12 13 14 15 13 18 19 19 24 24 17 17 16 13 16 20 17 20 27 31 29 30 32 32 31 32 23 24 24 25 25 26 25 25 24 23 23 23 22 22 22 22 22 21 22 21 22 22 23 22 21 21 20 20 19 18 17 18 20 20 20 20 19 19 19 19 18 18 18 17 17 17 18 18 16
11 13 14 15 15 21 13 18 32 30 33 36 28 31 17 21 22 21 19 20 23 21 12 12 11 15 18 19 25 16 19 13 9 10 14 16 19 17 19 22 27 28 29 30 31 32 30 31 24 23 23 25 25 25 25 25 25 24 24 23 22 22 22 22 22 22 22 21 21 23 22 22 22 21 21 20 19 18 17 18 19 20 20 19 19 19 18 17 17 17 16 16 15 16 16 16 15
13 13 15 17 19 16 25 24 29 33 37 33 31 22 21 22 24 22 21 20 22 14 12 17 19 12 17 21 21 17 26 11 15 11 14 17 14 23 22 25 26 27 27 29 30 30 29 30 24 23 24 25 25 25 25 25 24 24 23 22 22 23 22 21 22 22 21 22 21 21 21 21 21 21 21 21 19 18 16 16 18 19 19 18 18 18 17 16 16 16 16 14 14 15 15 15 13
14 14 16 20 19 24 28 30 31 32 40 34 31 21 22 21 23 23 21 18 18 14 15 15 21 16 15 23 19 23 15 14 14 10 15 15 16 22 24 26 27 27 28 28 29 29 29 29 23 23 23 25 26 25 24 23 24 23 22 22 22 22 22 21 22 21 22 22 21 21 21 21 21 21 21 21 19 18 17 16 17 17 18 17 17 16 16 15 15 15 14 14 14 14 14 13 12
14 15 15 17 24 20 26 31 33 34 33 28 31 27 21 23 22 21 22 20 18 13 14 17 21 18 17 16 13 20 16 16 12 10 11 15 19 22 24 26 26 27 26 28 27 28 32 29 24 23 23 24 24 25 23 24 24 23 23 22 22 22 21 22 21 21 22 21 21 21 20 20 20 21 20 20 19 19 18 17 16 16 17 17 17 16 16 15 15 14 13 14 14 13 12 11 10
20 19 21 19 20 20 29 37 38 33 32 30 38 29 19 21 22 20 23 22 19 18 10 19 15 14 24 20 14 12 12 11 12 14 10 20 20 24 26 25 25 26 27 28 28 27 34 25 23 23 23 24 25 24 23 23 23 22 23 22 22 22 21 21 20 20 22 21 21 20 20 20 20 20 19 19 19 18 18 16 16 16 16 16 16 16 16 16 15 15 15 14 13 12 11 10 10
14 23 23 26 27 28 35 35 39 35 32 30 26 26 18 19 19 20 22 24 25 26 11 12 13 15 16 11 17 14 11 10 11 13 20 23 24 25 25 26 27 27 28 27 26 25 27 23 22 22 23 24 26 25 24 23 23 22 22 23 22 21 21 21 20 19 19 20 20 19 20 19 19 19 19 19 19 18 17 17 16 16 16 16 16 16 15 15 15 15 14 13 12 11 10 10 9
20 22 11 23 31 32 33 39 38 31 31 18 20 20 12 15 17 20 24 25 22 15 18 14 11 16 13 12 17 18 15 11 13 16 21 24 25 26 28 25 29 29 27 28 26 28 32 22 22 22 22 24 24 25 23 23 22 22 22 22 21 20 19 20 21 19 18 17 18 19 19 18 18 18 17 17 18 17 17 17 16 16 16 16 16 16 16 16 16 15 14 12 11 11 10 9 8
22 25 23 32 26 38 34 35 35 30 33 22 23 21 21 21 23 24 25 26 24 21 16 10 11 18 15 19 19 17 16 14 18 19 20 22 24 23 23 23 25 28 27 28 27 30 29 23 21 21 21 22 23 22 21 20 21 21 21 21 18 18 18 19 19 18 16 16 16 17 17 17 16 16 17 17 16 17 17 17 16 15 16 16 16 16 16 16 15 14 13 12 11 10 10 9 8
29 27 16 29 34 37 40 33 32 27 26 27 24 21 19 25 26 27 22 24 23 22 11 10 19 21 19 22 17 17 16 16 18 21 20 22 22 24 23 22 24 26 27 26 26 27 30 30 23 21 21 21 21 21 19 19 18 18 18 18 17 17 18 17 18 16 16 16 17 17 18 17 17 16 16 16 16 16 16 16 15 14 15 15 15 15 15 14 14 13 12 11 11 10 9 8 8
29 31 26 33 38 38 35 37 32 28 22 25 26 21 25 27 25 23 22 27 26 24 19 13 18 12 20 17 16 15 16 15 15 21 21 23 24 22 22 24 23 22 24 26 26 27 30 29 29 24 20 20 20 19 18 17 17 17 18 18 17 17 18 17 16 16 17 16 17 17 17 17 17 16 14 15 15 15 15 15 14 14 13 14 14 14 14 14 13 12 12 11 10 9 8 8 7
32 26 31 36 41 34 34 35 33 29 22 25 22 28 26 25 25 25 27 27 24 25 22 22 17 16 22 18 16 15 15 16 17 21 24 25 24 25 21 23 23 22 24 26 26 27 28 29 30 29 24 22 19 19 18 17 16 17 17 17 17 17 18 18 17 17 16 17 17 17 17 17 17 16 15 14 14 14 13 14 13 13 12 13 13 13 13 13 12 12 11 10 9 9 8 7 6
34 27 29 41 31 35 36 34 29 29 27 19 24 19 22 23 23 24 25 25 24 27 17 10 16 14 19 18 15 16 19 18 21 22 24 23 24 24 22 23 22 23 23 25 26 27 28 28 28 28 28 26 26 23 18 19 17 17 17 17 18 17 18 17 16 15 15 15 15 16 16 17 16 16 15 14 13 12 12 12 12 12 11 12 12 12 12 12 12 11 11 10 9 8 8 7 6
31 24 30 36 35 34 33 38 28 27 27 18 21 21 20 21 16 17 21 23 25 21 12 11 14 15 18 20 16 19 25 23 24 23 24 24 23 23 22 23 22 22 24 24 26 27 28 27 28 27 25 26 26 24 24 25 21 19 18 18 20 18 17 17 16 14 16 16 16 16 15 15 15 15 15 15 14 13 12 11 11 10 10 10 11 11 11 11 10 10 10 9 9 8 8 7 6
27 24 31 35 39 35 34 34 26 25 28 20 16 17 17 17 19 19 22 22 18 12 12 19 17 21 12 22 17 17 28 27 24 25 27 25 23 22 24 23 23 23 24 25 25 26 27 27 26 28 27 25 24 24 24 25 23 22 20 22 21 20 20 19 17 17 16 16 16 15 14 17 15 16 16 17 15 14 13 12 11 10 9 9 10 10 10 10 10 10 9 8 8 9 8 8 7
25 24 34 39 39 35 31 30 28 38 19 19 16 18 20 21 18 19 8 15 23 19 16 12 13 13 15 12 12 27 27 27 26 27 27 27 28 26 25 26 26 25 24 25 24 27 26 26 26 27 24 25 24 23 24 24 25 23 21 21 21 20 19 19 18 18 16 15 16 14 13 16 15 16 18 17 16 16 13 13 11 10 9 9 9 9 9 9 9 8 8 8 8 9 9 9 8
25 37 37 38 36 34 28 31 28 19 20 19 18 19 19 18 17 19 15 19 21 17 17 15 11 12 10 10 17 25 28 30 30 30 29 29 29 29 28 26 27 28 28 28 25 25 26 25 26 25 26 25 24 25 24 24 26 24 25 25 24 24 19 17 20 20 15 18 14 17 15 15 16 16 16 13 16 16 16 12 11 9 9 8 8 8 9 8 7 8 8 9 8 9 10 17 14
35 33 36 43 31 31 20 23 21 20 21 18 14 15 16 17 16 19 22 20 21 21 21 16 15 13 14 16 21 26 28 27 29 28 32 31 31 30 29 28 26 27 27 27 28 25 25 26 25 25 24 25 24 23 24 23 25 24 23 24 23 18 21 22 20 18 18 17 17 17 15 15 15 14 15 15 14 10 15 11 11 10 8 8 8 8 8 8 9 9 9 9 8 10 18 14 12
34 31 39 38 24 22 20 21 21 19 17 17 15 15 15 14 14 14 19 18 19 21 22 20 17 16 15 17 20 24 26 27 28 28 28 27 27 29 27 28 27 27 27 27 28 26 26 26 25 24 24 25 25 24 23 24 24 24 23 23 24 22 23 22 19 17 17 16 16 15 15 15 15 15 11 13 13 16 16 10 10 9 8 7 8 10 10 8 8 10 9 9 11 12 12 12 13
31 39 40 28 25 25 19 18 20 19 16 13 13 14 15 16 14 17 13 16 20 20 18 11 13 14 17 19 21 23 25 26 26 25 25 26 25 25 24 25 26 26 26 24 27 26 25 24 25 25 25 25 24 25 23 24 24 23 23 23 22 22 21 20 18 17 16 16 15 14 14 15 16 15 16 18 16 15 15 17 16 16 16 15 10 13 15 18 15 17 17 17 13 9 10 7 10
26 39 28 23 19 26 19 20 18 18 10 15 14 15 18 13 14 16 15 20 20 16 14 9 10 18 22 24 23 25 25 26 26 26 26 26 28 26 24 22 20 22 23 25 26 25 25 26 26 25 26 25 24 24 25 24 25 23 23 22 21 21 21 20 18 18 17 16 14 15 15 15 16 15 15 15 14 14 14 15 17 15 14 13 14 13 12 10 11 10 10 10 10 10 8 8 9
38 30 30 28 22 21 20 19 19 18 18 18 18 19 18 15 17 18 18 22 20 14 11 12 15 19 21 22 26 24 27 27 26 25 25 25 25 23 25 24 26 26 26 24 25 25 26 24 26 26 27 27 25 23 25 25 24 23 22 21 21 20 20 19 18 17 16 15 14 15 15 16 16 15 15 14 13 13 13 12 13 12 13 13 13 11 10 9 10 8 9 9 8 10 10 9 12
34 36 23 29 24 24 18 18 17 19 21 21 20 12 17 16 20 19 22 22 22 20 17 18 17 15 20 25 26 26 27 26 24 23 22 22 21 24 24 24 23 21 23 22 25 26 26 26 26 26 27 27 25 24 24 26 22 23 21 20 20 18 19 18 17 17 15 16 15 15 14 15 15 14 14 14 13 13 12 11 11 12 12 12 12 11 11 10 10 8 8 9 11 10 12 11 9
36 40 24 19 25 26 23 18 18 19 22 21 19 21 20 18 18 14 20 21 20 18 18 17 15 17 19 22 23 21 22 22 21 21 19 23 20 19 22 23 23 23 23 24 25 25 25 27 25 27 25 26 26 25 25 24 24 23 21 21 20 16 18 18 17 16 16 16 15 15 15 16 15 15 14 14 13 12 11 11 12 12 12 12 11 11 10 9 9 9 9 10 9 9 10 10 10
37 29 27 19 19 22 25 25 22 19 19 18 22 24 22 20 15 23 23 22 20 18 17 15 15 17 19 19 20 20 21 22 22 23 23 21 22 22 23 26 26 23 22 24 25 25 25 25 26 27 26 28 26 24 25 24 25 24 23 21 20 19 17 18 15 17 16 16 16 15 15 15 14 14 14 14 15 13 12 11 11 12 12 10 12 11 11 11 10 9 9 10 11 11 11 9 12
18 30 29 27 21 20 21 26 25 23 23 18 23 22 24 21 21 27 22 24 23 21 19 14 15 18 17 17 19 19 21 23 24 23 23 22 23 25 25 26 27 24 24 25 26 26 26 25 26 25 26 23 24 25 24 24 24 24 23 23 22 20 19 18 18 17 16 16 16 16 16 16 15 14 14 13 13 14 13 13 13 13 13 12 12 11 11 10 9 9 9 10 10 11 11 11 12
9 20 27 28 24 24 21 22 23 23 28 24 22 25 23 21 23 27 17 15 18 20 19 17 16 17 17 17 20 20 22 23 24 23 27 26 29 29 27 29 27 26 27 26 26 25 27 27 27 27 27 28 27 26 24 25 25 24 22 23 22 21 19 18 19 17 16 17 16 16 16 15 15 15 14 14 13 14 15 15 14 13 13 12 12 10 11 10 10 9 9 11 11 12 12 12 11
21 14 24 28 29 39 31 32 22 22 23 17 21 23 31 31 31 23 26 24 19 19 19 18 18 17 17 18 21 21 23 23 25 27 27 28 26 29 29 26 27 27 26 25 26 25 27 27 28 27 29 27 27 27 26 25 24 24 24 21 22 22 21 20 20 18 17 16 17 17 16 15 15 16 15 15 13 14 13 13 14 12 12 11 10 9 9 10 10 10 10 10 11 12 12 12 14
19 23 24 22 28 36 33 31 28 22 23 15 19 32 32 33 32 29 29 29 25 23 23 22 20 19 18 19 21 21 22 24 25 27 28 28 27 28 29 27 26 26 27 27 26 28 30 28 30 29 29 29 28 28 26 27 24 23 24 23 22 23 21 21 19 17 18 18 17 17 17 16 15 15 15 14 14 14 14 13 13 13 12 11 10 11 12 11 9 9 9 11 9 12 12 11 13
31 22 24 34 28 34 28 39 31 31 24 20 19 33 26 18 18 27 29 30 29 29 26 24 22 20 19 20 21 22 22 24 24 24 24 26 26 26 27 26 27 26 28 27 29 29 27 28 28 28 29 29 27 28 27 26 25 25 25 22 24 23 23 21 20 19 19 19 19 19 18 17 16 16 15 14 13 13 14 13 13 13 12 11 11 10 10 9 8 8 9 12 10 12 11 11 12
29 31 38 31 34 21 22 31 33 39 30 25 21 34 31 18 17 20 22 25 30 30 28 26 24 22 20 20 21 22 22 22 21 22 24 25 25 27 28 28 28 26 27 28 27 27 27 26 26 25 28 32 27 28 25 26 25 23 24 19 22 22 21 21 21 19 19 19 19 20 19 19 17 15 15 14 14 13 14 13 13 11 12 12 11 9 10 9 7 9 8 10 12 13 12 11 12
32 36 24 33 30 27 18 23 26 33 32 28 35 27 20 28 23 27 20 21 23 27 28 26 24 22 22 21 22 21 22 23 23 24 24 26 27 26 27 27 29 27 25 27 28 29 28 27 28 27 31 30 28 27 26 24 24 25 23 22 20 20 20 21 19 18 19 19 19 20 20 18 17 16 15 14 13 13 13 13 12 12 11 11 11 10 9 7 8 8 8 9 10 15 15 13 14
34 33 34 24 30 30 28 21 27 29 32 31 34 40 24 13 19 28 27 25 23 25 26 25 25 23 21 22 22 22 24 25 27 27 27 27 27 26 26 26 27 27 26 27 28 30 30 29 30 33 32 29 27 27 27 26 25 24 21 21 20 22 21 22 20 21 21 21 19 19 20 20 17 17 15 15 13 13 12 11 11 12 11 11 10 10 8 7 7 8 9 9 11 13 14 14 15
30 31 30 29 26 28 26 27 25 28 33 30 29 34 32 31 25 18 20 26 27 26 26 25 25 22 23 22 23 23 24 26 28 26 26 27 25 25 28 26 26 28 27 26 26 26 26 28 28 27 30 28 27 26 25 24 24 22 20 19 19 20 21 21 20 21 20 19 19 19 20 18 17 16 16 14 13 14 13 11 11 12 12 12 11 9 9 7 8 8 10 10 10 12 14 13 15
29 26 29 25 24 29 35 26 21 30 31 33 30 33 33 35 33 29 20 18 22 26 24 24 24 24 23 24 24 25 26 28 24 23 24 26 26 26 28 28 27 28 26 26 27 26 27 26 25 29 27 29 27 24 27 27 24 25 23 19 20 22 22 22 21 22 20 20 19 20 19 18 18 16 16 15 14 13 12 12 12 13 12 11 10 8 8 8 7 8 9 11 12 12 10 12 13
21 23 25 27 24 22 22 24 18 24 26 30 30 27 28 33 33 31 30 22 20 23 26 25 24 25 26 26 25 26 26 25 19 22 23 24 25 26 27 27 27 26 26 26 28 27 27 30 27 28 28 27 30 28 27 27 26 23 21 23 24 23 23 21 21 20 21 21 20 19 18 17 17 16 16 15 14 13 12 11 11 11 11 11 9 8 7 7 8 9 10 10 12 12 11 12 13
19 22 23 27 25 23 23 26 22 23 25 24 26 27 28 29 28 30 28 29 28 24 25 26 24 24 25 27 26 26 26 16 17 19 22 22 26 25 25 27 24 28 28 28 29 30 27 27 28 30 29 29 30 29 30 27 27 28 26 25 23 24 24 24 24 22 21 20 19 18 18 18 17 16 15 14 13 13 12 12 11 11 11 10 8 8 8 8 7 9 10 11 9 12 14 12 14
18 24 25 25 27 21 17 22 21 21 23 24 24 29 28 28 27 26 28 30 29 26 25 24 27 27 25 26 25 24 22 21 21 22 21 25 26 26 28 27 28 29 29 30 29 28 29 29 28 28 30 31 31 29 28 31 27 27 26 25 26 25 21 21 22 21 20 20 19 19 18 17 17 17 15 15 14 13 13 12 12 11 10 10 10 10 8 7 9 8 10 12 14 11 12 10 12
25 23 23 27 21 27 25 22 20 21 26 23 20 21 25 26 27 26 26 29 28 27 28 26 24 27 28 27 29 28 27 27 26 28 27 26 27 29 30 27 29 28 28 27 29 31 30 30 28 29 29 28 29 30 27 26 25 23 22 22 21 20 21 19 20 20 19 19 20 20 19 17 17 17 16 16 15 14 12 12 10 10 10 9 9 9 8 8 8 9 10 11 12 15 13 13 11
28 24 25 23 23 27 20 25 26 21 22 21 19 24 26 27 28 31 27 26 27 30 27 27 26 23 25 27 26 29 32 32 32 27 27 27 28 30 31 28 27 28 29 29 31 33 34 32 30 30 29 28 27 26 27 25 24 23 22 19 19 18 17 19 21 22 21 20 20 19 19 18 18 16 16 15 15 14 12 11 10 10 10 10 9 8 8 8 9 12 11 11 11 13 16 14 12
31 27 23 20 19 21 24 14 24 24 26 28 24 27 33 27 31 30 26 30 29 28 26 25 24 24 24 25 27 29 28 29 29 32 33 31 30 26 25 28 28 28 28 29 30 32 29 31 29 28 26 25 25 27 28 27 27 27 26 25 27 24 23 24 25 25 23 22 22 18 18 19 18 16 16 16 15 13 12 11 10 11 11 11 9 8 8 7 9 9 10 10 11 10 13 15 15
30 34 23 19 19 22 23 20 23 25 27 29 29 32 23 25 31 31 28 28 31 29 29 26 26 26 26 28 30 33 34 31 27 24 24 26 28 29 30 30 32 29 28 25 26 29 29 29 28 27 28 27 28 26 29 26 27 27 27 27 25 26 26 23 21 22 23 22 20 18 18 17 18 17 16 16 14 14 12 11 11 11 11 10 8 8 7 9 10 11 11 10 12 11 11 15 14
33 23 28 18 20 22 23 23 23 21 15 18 28 33 28 24 29 26 29 27 29 31 31 29 28 26 27 27 28 27 31 30 31 32 31 29 27 30 32 30 29 31 23 23 23 25 26 31 33 28 26 26 27 29 29 30 28 27 26 24 23 24 24 23 24 22 21 20 19 19 18 18 17 17 17 16 15 14 13 12 11 11 11 10 9 8 9 9 9 10 9 8 9 10 11 14 13
24 24 28 25 23 22 23 25 23 24 18 26 27 26 32 30 19 22 29 31 30 31 31 32 30 28 27 28 29 27 27 28 29 29 30 30 31 29 27 27 28 24 23 24 21 21 26 31 27 24 25 24 26 28 29 29 28 26 25 25 24 23 23 23 23 23 22 20 19 19 19 19 19 17 18 18 16 16 14 13 12 11 10 9 9 10 9 9 9 8 8 10 11 11 11 10 11
20 26 25 24 19 14 20 24 24 21 20 27 28 31 35 27 25 23 23 28 32 32 31 31 30 29 29 30 27 27 25 24 25 27 25 24 24 25 25 23 23 26 21 18 18 22 24 24 27 29 26 24 25 27 28 27 26 26 25 25 26 23 21 21 23 24 22 19 20 19 19 20 19 19 18 17 16 16 14 14 12 11 10 10 10 10 10 9 8 9 10 9 9 10 9 9 11
20 26 28 26 22 22 17 20 23 21 29 32 23 28 29 28 28 29 28 33 27 27 29 29 31 30 29 28 28 28 27 28 29 25 21 20 21 23 22 24 26 23 17 19 22 25 24 27 27 28 27 26 25 27 27 27 25 27 30 27 25 23 21 20 22 22 21 20 20 19 21 20 18 18 17 17 19 16 14 13 11 11 12 11 11 10 8 9 8 8 9 8 10 10 10 10 10
26 37 35 29 25 20 20 21 18 25 31 23 26 25 28 31 22 24 23 21 25 25 26 29 30 32 32 28 29 28 26 27 25 23 22 20 22 22 23 24 25 24 21 23 24 26 27 27 28 28 28 27 26 29 28 29 25 26 25 21 19 22 20 21 22 22 21 22 21 21 22 20 18 18 16 18 17 16 15 13 13 13 13 12 11 10 9 9 9 9 9 10 12 12 11 11 11
31 33 35 35 33 30 30 31 33 36 27 18 28 23 26 35 22 16 17 20 26 25 25 28 29 31 30 29 28 26 28 24 24 24 23 24 25 26 25 25 24 23 24 23 26 26 26 26 27 28 29 28 28 29 29 30 26 26 28 26 23 24 21 20 23 22 22 21 21 21 22 23 22 20 18 17 18 17 16 15 14 14 14 12 12 11 11 10 10 10 12 13 13 13 13 13 14
36 38 41 40 38 35 31 35 28 23 20 14 18 21 30 14 27 26 24 24 25 23 22 22 26 28 29 29 27 25 23 23 24 24 24 25 26 25 24 26 26 24 23 26 25 27 26 26 27 28 29 29 28 31 31 32 31 32 30 26 24 25 23 21 20 21 20 20 21 22 23 24 25 23 23 20 20 19 16 14 14 14 14 13 13 12 11 10 11 12 12 13 13 12 13 13 13
37 28 38 34 32 42 31 34 34 28 24 21 16 24 22 22 19 23 30 31 27 21 24 22 19 21 23 24 24 24 24 24 25 25 25 27 27 25 25 25 25 26 24 25 25 26 26 26 28 29 28 29 30 32 33 33 34 33 29 25 22 21 21 17 16 15 21 21 21 22 22 23 23 23 24 21 21 19 17 16 15 15 14 13 13 12 11 13 13 13 13 13 13 12 12 13 13
35 33 30 35 33 20 24 18 20 25 21 24 28 25 13 20 16 13 18 27 28 24 22 20 19 18 16 17 21 24 25 26 25 25 25 25 24 25 25 25 25 25 26 26 25 26 26 26 27 27 29 30 30 31 34 35 33 32 25 26 28 21 18 15 18 18 22 20 21 22 22 21 22 23 21 23 22 19 19 17 17 16 15 13 12 12 13 13 12 14 14 14 13 12 12 14 12
38 35 39 33 23 24 15 9 17 9 13 22 20 25 23 18 25 18 20 20 23 25 26 25 23 21 18 20 22 23 24 25 26 27 26 25 24 26 26 25 25 24 25 25 26 26 25 26 26 26 26 26 28 30 30 31 27 24 23 24 25 22 18 20 22 20 22 19 19 20 21 22 24 22 23 23 23 20 19 17 17 16 14 14 13 14 14 14 14 14 14 14 13 12 13 14 13
36 40 34 19 20 19 24 24 18 20 23 20 21 24 24 21 20 21 21 22 22 24 26 26 23 21 22 22 21 23 23 23 24 24 24 25 25 26 25 24 23 23 23 23 24 22 23 22 23 26 26 27 28 26 23 23 24 22 21 20 20 21 20 20 19 19 18 20 20 21 20 23 21 19 19 20 22 21 19 17 17 16 15 14 16 16 15 16 15 15 14 13 13 11 14 13 13
31 30 24 35 29 17 22 21 23 26 25 21 20 20 22 28 22 22 21 22 22 23 23 23 23 23 23 21 21 20 20 22 24 25 25 25 26 26 26 24 22 23 22 21 22 22 21 19 20 21 23 24 23 24 23 22 24 24 24 22 20 19 17 19 18 17 18 18 18 17 20 19 18 18 21 20 21 21 20 18 17 17 16 17 17 16 16 17 15 15 13 12 11 13 14 14 12
25 24 30 26 19 23 25 23 14 25 18 16 17 22 23 23 25 16 15 18 20 21 21 22 23 23 21 19 20 21 23 23 24 24 24 25 25 24 24 23 23 23 23 22 22 20 21 21 24 25 27 30 30 28 28 28 26 24 21 18 15 16 18 19 19 20 20 18 18 19 19 19 19 19 19 20 21 21 19 19 17 17 17 17 17 17 17 15 14 14 13 13 13 14 15 14 14
35 38 32 31 23 17 18 22 21 22 20 21 16 17 23 22 22 21 23 15 14 18 20 17 17 16 16 17 19 20 21 21 22 23 23 23 23 23 22 21 21 21 22 22 23 23 24 24 25 28 31 30 28 30 30 29 30 29 26 21 21 20 18 21 22 19 21 19 18 17 18 19 19 16 19 19 19 22 20 19 19 18 17 18 17 17 15 15 15 14 13 13 13 14 15 14 14
31 34 32 30 25 24 25 23 18 15 23 21 21 16 15 22 24 24 24 16 13 14 13 15 16 17 17 17 18 20 21 20 22 21 21 23 22 22 22 22 21 23 25 23 24 25 28 30 28 30 33 30 29 29 30 31 27 29 28 31 26 19 22 21 24 22 19 22 18 18 19 20 20 20 19 19 20 19 19 20 18 18 18 18 17 17 17 16 15 14 14 13 13 15 15 15 14
Wind_Speed
7 5 3 4 4 4 4 5 9 6 6 13 12 12 10 7 9 10 7 8 10 4 5 5 4 5 8 9 12 12 11 11 7 10 2 2 0 7 9 9 13 18 17 16 17 18 19 19 19 19 19 20 19 19 18 18 18 17 16 15 15 14 14 14 14 14 14 14 15 15 15 15 15 13 12 13 13 13 13 14 14 14 15 15 15 15 15 14 14 14 14 13 13 13 13 12 12
3 3 3 4 4 4 6 4 8 12 10 11 14 11 9 7 7 9 10 10 10 9 0 5 5 6 7 10 10 10 13 10 8 4 6 4 7 8 9 11 16 18 16 16 17 17 18 19 19 19 19 21 20 19 19 18 17 16 16 15 14 14 14 14 14 14 14 13 14 15 15 15 14 13 12 12 13 13 11 13 14 14 15 15 15 15 14 14 14 14 13 13 12 13 13 12 11
3 4 5 5 5 7 1 5 11 12 14 15 11 13 8 11 10 11 11 11 13 12 3 5 4 7 9 10 13 7 2 5 1 2 5 7 8 7 10 13 16 16 17 15 16 17 15 19 19 19 19 20 20 19 18 18 17 16 16 15 14 14 14 14 14 15 14 13 14 15 15 15 14 14 14 14 13 13 13 14 14 14 14 14 14 14 14 13 13 13 12 12 12 11 12 11 10
5 5 5 6 6 4 8 7 12 13 15 14 11 10 9 10 13 11 11 11 13 6 4 6 7 3 8 11 9 9 14 2 7 3 4 6 3 11 11 15 17 14 14 14 16 15 15 20 19 19 19 20 20 20 19 18 17 17 16 15 14 14 14 14 15 14 14 13 14 13 13 14 15 15 15 13 13 13 13 12 13 13 13 13 14 13 13 13 12 12 11 11 11 11 11 10 10
5 5 6 7 6 7 8 9 12 12 18 12 12 9 10 10 10 10 10 9 10 5 7 6 6 7 6 12 7 7 5 6 7 3 4 5 6 11 13 16 15 15 14 16 15 15 16 24 19 18 19 20 20 20 19 18 18 17 16 16 15 15 14 13 13 14 15 14 13 12 13 14 15 15 15 15 14 14 13 12 12 13 13 12 11 12 11 10 11 11 11 10 10 10 10 9 8
5 5 5 6 6 5 6 11 13 15 15 11 14 12 5 9 10 8 11 11 10 5 7 9 8 8 6 6 3 6 7 5 4 4 1 5 10 12 14 14 14 14 15 15 14 13 17 21 19 18 18 19 20 20 19 18 17 16 16 16 15 15 15 14 13 14 14 13 12 13 14 14 15 16 15 15 15 15 14 13 12 11 12 12 12 12 11 10 10 9 10 10 9 9 8 7 7
6 6 6 6 5 4 11 16 17 15 15 16 17 15 7 7 7 9 13 12 11 10 3 9 7 6 10 5 5 3 4 3 4 5 2 10 11 13 14 13 14 15 15 14 13 13 21 19 19 18 18 18 20 20 19 18 17 16 16 16 15 15 15 14 13 13 14 13 14 13 13 14 15 16 14 14 14 14 14 13 12 11 10 10 11 11 11 11 10 9 10 10 8 7 7 6 5
5 8 7 9 8 8 14 16 18 15 14 17 15 15 9 9 11 10 12 13 11 11 4 4 5 6 6 4 6 5 4 3 4 4 9 11 14 14 13 12 14 14 15 13 12 13 20 18 18 18 18 19 21 20 19 18 17 15 16 15 15 15 15 14 13 11 12 13 13 13 13 14 15 15 14 14 14 14 14 13 13 11 10 10 10 10 11 11 10 10 10 9 7 7 6 6 5
7 8 1 8 13 9 13 17 17 16 16 5 10 10 8 7 9 10 14 13 13 8 9 6 3 5 1 3 6 8 5 4 6 8 10 12 15 15 10 12 13 13 14 13 12 16 19 17 17 17 18 19 19 20 19 18 17 16 16 15 15 14 13 14 13 11 11 11 11 13 13 13 12 12 12 13 13 14 13 13 12 11 11 11 11 10 11 11 10 10 9 8 8 7 6 5 5
7 9 8 9 9 17 15 15 16 14 16 12 13 11 10 10 13 14 14 16 14 13 8 3 4 9 7 9 7 8 5 6 9 10 11 12 14 13 11 12 13 15 14 13 14 16 15 18 16 16 17 17 18 18 17 17 16 15 15 14 13 13 12 12 11 11 10 10 10 12 12 11 10 10 12 13 13 13 13 13 12 12 11 11 11 11 11 11 11 10 9 9 8 7 6 5 4
8 8 5 10 14 16 18 15 15 14 14 13 14 12 10 12 14 15 13 14 14 12 2 3 8 12 9 11 5 7 8 8 9 12 12 13 12 12 11 12 12 13 13 14 15 15 16 18 18 15 16 16 16 17 16 15 14 13 13 13 12 12 12 12 11 10 10 11 11 11 11 11 11 10 10 11 12 13 13 12 12 11 11 11 11 11 11 10 10 9 9 8 7 7 5 5 4
10 11 8 13 16 16 16 16 17 13 12 13 12 11 10 16 15 11 12 15 15 15 10 5 5 4 9 6 4 6 8 7 8 11 12 13 11 12 12 10 12 12 14 14 15 15 17 17 16 16 14 15 15 15 15 14 14 13 13 13 13 12 12 12 11 10 10 10 11 11 10 11 12 10 9 10 11 12 12 11 11 11 10 10 10 10 9 9 9 9 8 8 7 6 5 4 3
12 10 13 13 16 15 17 18 16 16 10 12 11 13 14 15 14 14 16 16 14 15 11 9 9 7 9 8 4 7 7 9 8 9 12 11 11 11 11 11 12 13 13 15 15 16 18 17 15 16 16 15 14 15 14 13 13 13 13 13 13 12 12 12 11 10 10 11 11 11 11 11 11 10 9 11 11 11 11 11 10 10 10 10 9 9 9 8 8 8 7 7 6 6 5 3 3
12 10 11 16 14 16 17 16 14 14 11 8 10 10 12 11 13 14 13 15 14 14 9 2 3 6 10 7 6 6 8 10 10 10 10 11 10 10 12 12 12 12 13 15 15 16 16 16 15 15 16 15 15 14 14 13 13 14 14 13 13 13 12 12 11 10 10 11 11 11 12 12 11 10 9 8 10 10 10 10 10 9 9 9 9 9 9 8 8 7 7 6 6 5 4 3 2
13 9 10 13 14 16 17 14 14 13 11 9 8 11 10 10 9 9 12 13 14 12 3 3 4 5 5 9 5 2 11 11 11 11 11 12 12 11 12 12 13 13 14 15 15 16 16 16 16 15 15 14 15 13 12 14 15 14 14 13 13 13 13 12 12 11 11 12 12 12 12 11 10 10 9 8 8 9 8 9 9 8 8 8 8 8 8 8 7 7 7 6 5 5 3 3 1
10 8 9 13 17 17 14 16 14 12 9 9 6 9 9 8 10 10 11 12 7 4 4 5 8 7 4 7 7 7 14 13 12 11 11 13 12 12 13 13 13 14 13 14 14 15 15 16 14 14 14 14 13 13 13 14 16 16 15 15 14 14 13 14 13 12 12 13 13 12 11 10 10 9 9 9 8 8 8 7 9 8 7 7 7 7 8 7 7 6 6 5 4 3 3 2 1
10 8 13 14 18 17 14 12 14 14 7 8 7 9 9 9 9 9 2 7 13 10 8 5 4 4 7 4 4 11 13 13 13 13 13 12 12 12 11 12 12 13 11 14 14 14 15 15 16 13 14 15 14 13 12 13 14 17 15 16 15 15 14 14 13 13 12 12 12 11 10 8 7 8 8 8 9 8 6 7 8 7 7 7 6 7 7 6 6 5 5 5 3 2 2 3 2
10 13 14 17 16 17 13 16 12 9 8 9 9 9 10 9 8 8 6 10 11 9 9 6 4 5 2 2 4 10 14 15 15 16 15 14 13 13 12 12 12 13 13 13 13 14 14 14 15 15 13 15 13 11 10 11 13 15 14 14 14 15 14 14 13 11 11 9 9 9 7 6 6 7 8 9 7 8 7 7 8 7 7 6 6 6 6 5 5 5 4 4 3 5 6 6 7
13 12 14 19 14 13 10 11 12 9 9 10 4 7 8 9 8 8 10 11 11 11 11 8 7 5 4 4 8 11 13 14 16 16 18 18 15 16 13 12 13 13 13 12 13 15 13 13 14 14 14 14 14 13 11 11 14 12 13 12 10 13 13 13 11 10 9 9 9 7 6 6 6 6 6 7 6 8 8 9 8 7 6 6 6 6 5 5 4 4 4 4 5 8 8 5 4
16 12 16 17 12 11 11 11 11 9 7 9 6 7 7 5 6 6 9 9 10 11 9 10 8 8 7 9 10 11 11 12 15 16 18 17 16 16 14 13 13 13 13 12 13 12 13 13 14 14 14 15 13 11 11 11 12 11 11 11 11 10 12 10 10 9 8 8 8 7 6 6 6 6 7 7 7 7 8 8 7 6 6 5 6 6 7 6 5 7 7 7 8 8 4 4 4
12 16 16 11 13 13 9 9 9 7 8 4 6 7 6 7 6 7 6 7 10 9 10 3 4 3 7 10 11 11 11 12 14 15 16 16 15 13 12 11 10 11 11 11 12 13 15 14 14 14 14 14 14 12 11 11 12 10 11 11 10 10 10 9 8 8 7 8 7 6 6 6 6 6 7 8 7 6 6 7 7 7 7 6 7 5 6 7 8 7 7 8 4 2 3 2 3
10 20 16 12 9 14 10 11 10 9 4 8 6 8 9 5 6 8 7 9 7 6 6 3 2 3 3 10 11 11 12 13 15 15 16 16 15 14 12 11 10 10 11 11 13 14 14 14 15 13 14 15 14 12 12 12 12 10 11 10 10 9 10 9 8 8 7 7 6 6 6 7 7 6 7 7 6 5 6 6 7 6 6 5 6 5 4 3 4 3 3 3 3 3 2 2 2
15 15 18 16 12 9 11 10 10 10 8 10 10 10 9 7 8 9 10 12 10 3 1 3 6 6 6 6 10 12 13 14 15 16 15 16 15 14 14 12 11 11 11 11 12 13 13 14 15 15 14 14 15 13 12 11 11 11 10 10 10 9 9 9 8 7 7 7 6 6 6 6 7 6 6 6 5 5 5 5 5 4 5 5 5 4 3 3 3 2 3 3 2 3 3 2 4
17 14 12 17 15 14 10 10 8 10 12 11 10 6 8 8 11 9 12 13 13 11 8 9 8 8 7 7 11 12 13 14 14 14 15 13 13 15 14 14 11 9 10 12 12 13 13 15 15 15 14 14 14 13 13 12 11 11 10 10 9 8 8 7 7 7 6 6 6 6 6 6 6 6 6 5 5 5 5 4 4 4 4 4 4 3 4 3 3 2 2 2 3 3 4 4 3
18 18 14 10 15 14 13 10 9 10 12 11 11 11 11 10 8 6 11 12 11 9 8 9 8 4 5 8 10 11 11 12 13 14 11 11 12 12 14 12 11 10 11 12 12 13 14 13 15 15 14 15 13 13 12 11 11 11 10 10 9 8 8 7 7 7 6 6 6 6 6 5 6 5 6 6 5 5 4 4 4 4 4 4 4 4 3 3 3 3 2 3 3 3 3 3 3
19 17 16 10 10 13 15 15 13 10 7 8 12 14 13 11 8 13 13 12 10 10 9 8 6 4 6 9 9 10 11 12 13 14 13 12 13 14 14 14 14 13 11 12 13 12 13 14 15 15 14 14 13 13 11 11 12 11 11 10 9 10 7 8 8 7 6 6 6 6 6 5 4 5 5 5 6 5 4 4 4 4 4 3 4 4 4 4 3 3 3 3 3 3 4 2 4
9 19 17 16 12 11 12 15 15 14 12 10 12 13 13 12 11 10 13 15 14 12 11 7 6 7 7 7 9 9 11 13 14 12 12 13 13 13 15 15 15 14 13 14 14 13 13 14 15 15 15 14 13 13 12 12 12 12 12 11 10 9 9 8 7 7 6 6 6 7 6 5 4 4 5 5 5 5 5 5 5 5 5 4 4 4 4 4 2 2 2 3 3 4 3 3 4
1 9 16 18 14 13 12 13 14 11 13 14 12 13 11 12 12 12 6 6 10 12 11 9 8 8 7 8 9 10 11 12 13 14 18 16 14 15 16 15 16 15 15 15 12 13 14 16 16 16 15 15 14 15 13 13 13 12 12 11 10 10 10 8 8 7 7 7 7 8 7 6 5 5 5 5 6 6 6 6 5 5 5 4 4 3 4 3 3 2 2 3 4 5 5 4 4
12 7 12 17 18 17 17 16 12 12 10 10 12 13 18 16 16 12 14 8 8 10 10 10 9 8 8 9 9 9 11 12 13 14 16 15 14 15 17 16 15 14 13 14 13 14 15 15 15 16 16 16 16 16 13 13 12 12 11 10 10 11 10 9 9 8 7 7 7 8 7 7 6 6 6 5 6 6 5 5 6 5 4 4 3 3 3 3 3 3 3 3 3 4 4 4 4
10 12 10 11 14 17 21 18 17 13 10 7 9 12 15 18 19 17 18 16 13 13 13 12 9 9 8 9 9 10 10 12 14 14 15 15 15 16 17 16 15 14 12 12 13 14 13 12 12 13 15 16 16 15 13 13 13 12 11 11 10 11 9 9 9 8 8 7 8 8 8 8 7 6 7 6 5 5 6 5 5 5 4 4 4 4 4 4 2 3 3 3 3 4 4 4 4
12 11 11 13 12 13 16 18 20 18 11 11 10 13 10 10 11 18 19 19 18 17 15 13 11 10 9 9 9 10 12 12 14 14 15 16 15 14 14 15 16 14 11 12 14 15 15 14 12 12 14 16 15 15 14 14 13 12 12 10 11 11 10 9 9 8 8 8 8 8 9 8 8 8 7 6 6 5 6 5 5 5 5 5 4 3 3 3 2 2 2 4 3 4 4 4 4
12 11 15 13 15 8 12 18 21 20 14 15 12 12 12 8 7 11 13 15 19 18 16 15 13 11 10 9 10 10 11 12 13 14 15 16 14 12 15 17 17 14 13 13 14 14 15 14 14 13 14 16 16 15 14 13 13 12 12 11 10 12 10 10 9 8 8 8 8 9 10 10 8 7 7 6 6 5 5 5 5 4 5 4 3 3 3 2 0 2 1 3 4 5 4 4 4
13 16 12 15 13 12 7 12 16 22 15 17 19 9 8 15 8 9 10 12 14 16 17 16 15 13 11 10 10 10 11 13 13 14 15 14 14 13 14 16 16 15 12 13 14 15 15 15 14 14 16 17 17 16 16 14 13 12 12 11 11 10 9 9 8 8 8 8 8 9 10 9 9 8 7 7 5 5 5 4 4 4 4 4 4 3 3 1 1 2 2 3 4 5 5 5 4
13 14 13 11 15 14 10 11 15 18 20 15 20 16 13 3 10 16 14 12 13 14 15 15 14 12 11 10 10 11 11 12 14 15 16 16 13 15 14 16 16 16 14 13 14 15 16 15 14 15 15 16 15 14 14 14 13 12 11 10 10 11 11 10 9 9 9 9 8 9 10 9 8 9 8 7 5 5 4 4 4 4 4 3 3 3 2 1 0 1 2 2 3 4 4 4 5
12 13 13 12 13 16 14 10 13 17 21 18 17 19 18 18 5 9 12 16 16 15 14 14 14 12 11 10 10 11 11 13 13 13 16 16 15 15 13 14 15 16 13 14 14 14 14 14 13 14 15 16 15 15 14 13 13 11 10 10 9 9 10 10 9 9 9 8 9 9 10 8 8 8 8 7 6 6 5 4 4 5 4 3 3 3 2 1 1 1 3 3 3 4 5 5 5
16 15 13 12 10 13 15 11 11 18 18 18 18 15 18 21 19 14 9 9 12 15 14 13 13 13 11 11 10 10 10 12 11 13 15 15 14 14 14 13 15 15 14 13 16 15 15 15 14 14 14 15 15 14 13 12 11 11 10 9 10 10 10 10 10 9 9 9 9 10 9 8 8 8 7 7 6 5 4 4 4 5 4 4 3 2 2 1 1 2 3 4 5 4 4 4 5
11 13 14 14 11 10 12 13 9 13 13 16 17 15 16 20 20 19 18 12 11 13 15 13 13 13 12 12 11 11 11 10 10 13 14 15 15 13 13 13 14 16 15 15 16 16 16 15 15 16 14 15 14 13 12 11 11 11 10 11 11 10 11 10 9 9 10 9 10 10 9 8 8 8 7 7 6 5 4 3 4 4 4 4 3 2 1 1 1 2 3 3 5 5 4 4 5
8 10 12 12 13 10 12 14 12 11 12 12 15 16 16 17 16 18 16 17 16 14 14 16 14 14 12 13 13 13 11 8 10 10 12 14 14 15 14 13 15 16 16 16 17 18 16 15 16 15 13 14 14 14 12 13 12 10 10 11 10 10 10 10 10 10 10 9 10 9 8 7 8 7 7 6 6 6 4 4 4 4 4 3 2 1 1 1 2 2 3 4 2 4 4 4 5
9 10 11 11 11 10 8 12 12 10 11 10 13 16 15 16 16 15 17 17 15 14 14 14 15 15 13 13 13 13 12 11 11 11 12 14 16 16 15 13 14 16 17 17 16 17 16 15 14 15 14 13 13 14 12 11 12 12 12 10 10 10 10 9 10 10 10 10 9 10 8 7 8 7 7 6 5 6 5 4 4 4 4 3 3 3 2 1 1 2 3 4 5 4 3 3 5
11 9 8 11 10 12 9 10 11 11 9 10 10 10 11 15 15 15 15 16 15 16 17 16 14 14 14 14 13 13 14 13 13 14 15 15 16 16 15 15 14 15 15 16 16 16 13 13 13 13 13 13 12 13 12 10 9 9 10 10 10 10 10 10 10 10 10 10 10 9 8 8 8 7 8 7 5 5 5 4 3 4 3 3 2 3 2 1 0 2 3 4 4 5 3 4 4
14 12 11 9 12 13 9 10 13 12 12 12 10 10 10 13 14 14 15 15 15 17 16 16 15 13 12 12 14 14 15 15 14 15 14 15 16 17 16 14 14 15 16 16 15 13 10 13 12 13 12 12 13 13 13 12 11 10 10 10 9 8 7 9 10 10 10 10 10 10 9 8 9 7 7 7 6 5 5 4 3 3 3 3 3 2 1 1 2 3 3 3 4 4 5 4 3
14 16 13 11 11 11 14 4 13 9 10 13 12 8 12 14 17 15 12 13 16 15 15 15 14 14 14 14 13 14 14 14 15 16 17 17 17 15 15 17 17 16 15 13 11 13 11 12 10 7 2 7 12 15 14 11 12 12 11 11 11 11 10 11 12 12 11 11 10 9 9 9 9 7 6 6 6 6 5 4 4 4 4 4 3 1 1 1 1 2 3 3 3 3 4 4 5
13 14 14 11 9 13 13 11 11 10 10 13 16 13 6 11 16 17 14 16 18 16 17 15 15 14 14 14 14 14 14 14 13 13 14 15 17 16 17 18 18 17 14 11 10 11 9 9 7 15 15 13 14 15 17 13 13 13 14 12 11 10 11 10 10 10 10 9 9 9 8 8 8 8 7 7 6 6 5 4 5 4 4 3 2 1 0 1 2 3 3 3 4 3 3 4 4
12 13 17 10 10 13 13 12 11 7 6 5 16 13 10 9 12 15 18 16 17 19 18 17 15 16 15 15 15 15 14 14 13 14 14 15 16 18 20 19 15 15 12 11 10 9 13 20 18 12 11 12 12 13 16 15 14 14 14 13 10 11 11 11 11 10 10 9 9 9 8 8 8 7 7 7 6 6 5 5 5 4 4 4 2 1 1 2 2 3 3 2 2 3 3 4 4
8 13 17 15 13 13 13 12 9 10 8 9 11 15 11 11 5 12 17 18 18 19 19 19 18 17 16 16 16 16 15 15 14 13 14 16 17 17 16 16 16 14 11 11 11 11 14 11 12 13 13 12 13 15 16 16 15 14 13 12 12 10 11 11 10 11 11 10 10 9 9 8 8 7 8 8 8 7 6 5 5 5 4 2 2 2 2 3 3 2 2 2 2 2 3 2 3
10 14 15 12 10 6 10 10 10 9 6 11 14 15 12 10 10 8 12 15 17 17 18 19 18 17 17 16 16 16 15 13 14 15 14 14 14 15 15 13 13 12 10 9 10 12 12 12 16 18 15 12 12 15 16 17 16 13 12 14 15 12 10 9 11 12 11 10 10 10 10 8 8 8 8 8 5 7 7 6 5 5 4 2 2 3 3 3 2 2 2 2 2 2 2 2 3
9 16 15 12 10 9 7 8 9 8 11 14 13 17 13 9 12 13 12 13 13 14 14 15 18 18 17 16 17 15 15 14 13 13 12 12 12 14 13 14 14 12 8 11 11 13 13 15 16 18 16 14 15 15 16 17 15 15 15 15 16 14 13 11 11 11 10 9 9 9 10 8 7 7 6 7 9 8 7 6 4 4 3 3 3 2 2 3 2 2 1 2 2 3 2 2 2
15 13 13 12 10 9 8 7 6 8 11 11 15 14 16 12 9 11 11 12 14 14 16 17 18 20 18 16 16 16 15 14 13 12 12 12 12 13 13 14 14 13 12 12 10 13 15 15 16 17 17 17 15 16 17 17 13 15 15 13 11 6 3 7 9 11 11 10 9 9 8 7 7 7 6 7 7 7 7 5 5 4 4 3 3 2 2 2 2 1 1 1 2 2 3 2 3
15 16 15 14 11 8 9 10 12 13 8 7 16 13 10 15 7 2 8 11 15 13 12 15 17 18 19 18 17 14 14 14 13 13 12 12 13 13 14 14 14 14 13 14 15 14 14 15 16 17 18 18 17 17 18 18 16 15 15 13 13 13 12 10 10 10 11 9 8 8 8 8 9 8 6 7 8 10 7 6 6 5 4 3 2 1 3 2 2 1 2 2 3 3 3 3 3
18 17 17 16 14 13 12 14 8 7 8 4 6 11 12 5 12 11 5 8 11 13 12 12 16 17 17 17 16 14 12 13 13 13 13 13 12 12 12 13 14 14 13 13 13 14 14 14 16 17 18 18 17 19 18 17 16 16 18 14 13 13 13 12 11 10 9 9 8 9 10 9 9 9 10 8 9 9 7 7 6 5 5 5 4 2 2 2 1 2 3 3 4 3 3 2 3
17 15 17 14 11 11 11 11 12 11 9 9 7 8 6 10 5 12 15 9 8 10 12 12 11 13 15 15 14 14 14 14 13 13 13 13 12 12 12 12 13 12 12 13 13 14 14 14 16 18 18 19 19 19 16 17 15 16 16 13 10 10 10 9 8 7 9 9 8 9 9 7 7 8 8 7 9 10 8 7 7 7 6 4 3 3 2 3 3 3 4 4 3 3 3 2 2
15 14 13 15 14 7 8 3 7 10 8 9 11 7 4 7 5 3 8 16 16 12 13 12 11 9 8 8 11 13 13 14 13 13 13 13 13 13 12 12 13 13 14 14 15 14 14 14 15 17 18 18 17 17 17 17 16 14 14 10 10 8 7 7 6 6 8 8 9 10 8 6 4 4 4 8 10 9 9 9 8 7 6 4 3 3 3 3 4 5 5 4 4 2 3 2 3
15 15 16 15 12 11 3 3 8 4 3 7 6 9 5 1 4 9 11 11 14 15 15 14 13 12 10 10 11 13 13 13 13 14 13 14 13 12 12 13 13 14 13 14 13 13 13 13 13 14 13 12 11 12 12 13 11 10 10 6 1 4 5 8 8 10 9 7 7 6 6 6 6 7 10 11 11 10 9 9 8 7 6 5 3 3 4 5 5 5 5 4 3 3 2 3 3
13 15 16 8 9 9 8 7 5 6 8 4 9 11 10 7 3 10 12 12 13 14 15 15 14 13 12 12 11 12 13 13 13 12 11 12 13 13 12 12 14 13 12 11 12 11 11 11 12 9 4 7 9 5 4 9 11 10 7 6 7 6 5 7 8 8 7 6 5 5 5 5 7 7 5 8 11 11 10 9 8 7 6 5 5 5 6 6 6 5 5 4 3 2 3 3 3
14 13 12 11 11 7 8 5 9 10 9 6 7 10 9 12 5 9 11 12 13 13 13 14 13 13 13 12 12 11 11 10 11 12 11 12 12 12 13 14 13 12 9 11 11 11 10 8 8 11 11 12 12 13 13 12 13 13 13 12 7 6 5 4 5 6 6 7 7 5 7 6 6 6 5 5 9 10 10 9 9 7 6 6 6 6 7 7 6 5 4 3 3 3 4 4 4
16 13 14 13 8 10 10 5 4 8 7 6 7 10 7 8 9 6 7 10 11 12 12 12 13 13 11 10 10 11 11 10 11 11 11 11 11 12 13 13 14 13 13 13 13 11 12 12 14 13 16 16 17 16 16 16 15 13 13 11 9 8 7 7 7 7 7 6 5 5 8 9 8 7 8 7 8 11 10 10 8 7 7 6 7 7 7 7 6 4 4 4 4 4 5 5 5
15 16 13 12 8 7 6 7 7 7 5 7 4 5 8 8 8 8 5 5 6 9 11 8 8 8 8 9 9 10 10 10 11 11 11 11 12 12 13 13 12 12 13 12 13 13 14 12 13 17 19 19 16 16 15 16 16 16 15 14 11 11 11 9 7 6 7 4 4 6 10 9 9 6 7 6 7 12 10 9 8 7 7 7 8 8 7 7 6 6 5 5 5 5 5 5 6
15 14 14 13 11 9 11 10 6 5 7 6 6 3 4 8 10 9 9 8 5 4 4 6 7 8 8 8 9 9 9 10 10 10 11 11 12 12 13 12 12 13 13 14 14 14 16 16 14 15 17 15 16 15 16 16 15 15 16 19 17 11 13 9 9 8 8 8 6 8 11 11 10 7 8 7 9 9 9 10 8 7 7 7 8 8 8 7 6 6 6 5 5 5 6 6 6
Wind_Direction
265 247 307 276 262 258 250 203 257 197 232 247 253 243 249 223 262 268 279 282 271 284 273 288 273 244 274 333 320 308 299 289 298 282 30 108 111 156 144 147 153 150 148 147 145 149 151 149 149 150 150 151 149 146 146 147 145 144 142 144 145 143 140 138 136 135 136 134 134 132 129 128 128 130 128 126 123 120 119 122 122 119 119 117 117 116 116 115 113 111 107 104 104 102 97 96 96
241 268 249 235 236 222 209 221 249 263 232 251 250 256 234 217 230 254 268 262 272 298 93 292 261 267 268 288 291 295 274 252 274 12 94 77 111 132 136 156 155 153 148 146 145 152 153 151 149 151 151 151 149 146 147 147 145 142 142 143 144 143 141 140 138 139 138 137 135 133 131 130 130 129 124 118 116 116 116 119 120 119 119 118 116 115 115 114 112 108 106 105 104 99 97 95 97
262 235 194 217 210 236 348 206 249 245 252 249 247 238 224 234 240 259 263 261 271 290 169 272 295 258 269 269 276 279 358 31 127 106 82 142 141 149 155 156 159 154 149 144 148 154 152 153 150 150 151 151 149 145 146 147 145 143 143 144 145 145 143 142 140 140 140 137 136 134 132 131 129 127 121 118 119 119 116 119 119 119 120 119 116 115 114 113 112 110 107 106 104 102 98 97 98
277 257 234 199 195 210 225 212 240 252 253 253 262 240 195 221 247 255 265 271 274 280 215 248 239 72 277 279 290 314 272 276 37 39 132 167 349 142 153 159 157 151 148 149 151 152 153 149 151 150 151 150 149 147 147 149 148 146 145 147 147 147 145 143 142 142 142 140 137 134 133 131 130 128 125 125 121 114 114 114 113 117 118 119 118 116 115 114 113 106 103 103 106 106 100 97 95
246 200 253 216 254 213 224 233 241 242 245 247 252 255 184 233 246 256 263 270 272 234 250 269 267 238 259 284 291 272 33 85 72 33 76 87 97 138 152 156 155 154 151 151 152 150 147 150 150 151 148 151 151 148 148 150 149 147 147 148 149 148 147 142 143 145 144 142 136 134 133 131 130 129 128 125 116 112 110 110 113 116 118 113 112 114 114 117 116 116 114 106 105 104 101 99 99
219 205 207 245 223 352 251 237 234 237 251 252 254 258 198 242 253 258 266 271 281 246 250 264 260 275 227 231 221 270 24 285 38 78 46 112 137 139 152 153 153 153 151 149 147 152 152 148 150 150 148 151 151 149 148 150 149 149 149 149 149 150 149 146 145 146 145 141 137 135 135 135 132 130 127 124 118 109 106 105 108 117 121 117 117 116 114 109 109 111 117 109 107 97 97 101 102
176 192 178 215 256 222 236 241 246 244 241 239 250 253 234 240 251 264 266 276 268 284 226 258 250 253 256 214 205 59 38 37 279 59 337 122 131 145 151 158 153 151 149 146 150 148 150 147 149 149 150 151 150 149 149 150 150 151 151 150 150 151 148 147 146 147 145 143 139 136 138 136 132 129 126 124 118 113 110 113 114 116 114 117 118 118 117 115 115 111 110 107 104 97 95 98 91
252 229 173 206 214 202 228 241 248 245 249 240 234 236 246 238 263 260 268 271 277 268 143 220 220 242 283 95 269 96 98 46 58 100 113 135 141 144 156 156 153 146 145 145 147 144 134 148 147 149 151 151 151 150 150 151 152 152 153 151 151 150 148 148 147 146 145 144 141 140 137 138 135 130 128 127 120 115 115 116 117 116 115 116 121 121 117 115 116 110 111 116 110 107 103 92 85
192 234 126 235 231 220 237 238 248 244 256 225 208 224 265 261 253 259 260 262 270 256 255 223 166 245 234 189 249 124 101 106 109 118 133 138 143 147 156 158 150 146 146 144 141 135 152 148 149 151 149 153 151 149 150 152 153 155 153 152 151 148 148 149 146 146 146 145 143 140 139 140 137 132 130 129 121 115 114 113 114 115 115 114 114 112 116 119 119 118 121 119 114 108 100 93 87
189 226 189 225 229 236 234 239 240 238 240 197 213 215 213 222 241 240 253 257 257 265 259 129 246 259 295 274 275 160 106 122 127 127 132 140 141 146 152 152 150 144 144 141 139 148 154 148 149 150 151 152 151 147 150 152 154 155 154 151 148 144 146 146 145 146 147 144 141 140 138 136 130 127 132 134 128 117 113 113 114 115 116 114 113 117 119 122 122 124 124 119 114 108 102 96 90
199 204 243 219 227 238 237 241 238 236 231 218 220 213 207 224 235 237 235 253 258 259 358 231 252 255 255 259 259 86 112 134 142 134 140 142 144 144 148 151 146 147 142 142 147 149 151 157 150 149 151 151 148 146 148 150 151 151 149 147 144 142 144 143 145 146 146 143 143 139 136 133 132 133 136 140 129 121 114 111 112 113 115 116 117 118 120 120 121 118 115 115 111 107 102 100 93
211 195 189 225 228 231 237 246 244 242 220 213 205 181 205 227 232 235 223 237 242 242 239 205 268 14 276 284 246 121 126 139 132 135 145 143 145 148 147 144 145 145 144 144 150 152 157 156 157 151 150 149 147 144 145 148 148 146 146 146 143 144 143 143 144 146 144 144 142 138 134 136 137 132 134 130 127 125 118 112 109 111 114 117 119 120 121 121 120 119 120 119 117 113 110 104 98
227 192 205 227 232 235 243 246 244 247 221 204 210 201 215 224 222 218 234 241 247 256 230 220 257 257 261 256 83 138 151 142 128 147 146 151 144 147 148 141 143 145 149 155 153 156 157 159 159 159 153 148 144 143 144 144 144 144 144 145 144 146 147 145 145 145 145 145 139 137 140 140 137 133 136 136 128 126 124 117 108 108 111 115 118 118 118 120 118 121 120 119 118 116 119 111 103
223 207 209 231 235 243 241 242 243 232 214 210 206 225 207 204 213 225 239 244 245 250 268 8 253 243 254 264 203 203 150 139 134 152 154 152 141 147 144 141 146 151 159 163 156 156 161 162 159 162 154 158 152 146 143 141 142 143 144 145 146 148 149 147 146 147 147 144 140 139 143 144 141 138 138 143 136 129 127 123 114 107 111 114 116 116 113 114 114 112 114 116 116 118 118 121 120
222 224 232 240 240 236 235 241 227 227 234 228 217 209 180 208 220 219 235 245 243 253 76 227 250 207 254 211 230 104 130 136 143 152 157 154 155 147 144 147 156 160 164 169 160 161 164 163 163 160 163 163 156 160 160 149 145 143 144 145 146 148 149 149 146 151 150 149 147 146 147 146 143 143 144 147 125 128 131 131 122 114 113 115 113 112 111 109 109 107 108 110 117 111 108 100 105
227 223 232 236 233 233 226 229 228 236 234 216 221 189 187 200 215 224 224 236 248 104 242 209 200 238 349 275 50 101 127 137 146 153 157 153 155 153 155 155 161 162 166 170 165 164 166 165 164 163 166 164 165 164 162 160 151 148 148 148 150 151 152 153 153 156 157 156 153 149 147 151 155 157 156 161 139 135 147 169 130 123 122 118 114 111 108 106 104 104 104 114 113 116 121 138 149
224 237 226 229 239 226 225 226 212 223 216 219 145 168 204 216 192 222 231 217 241 226 201 222 207 230 264 343 73 116 133 138 149 151 157 156 159 159 162 163 164 166 169 171 168 167 167 167 166 165 168 165 166 164 164 162 153 154 155 155 156 156 154 154 155 157 158 153 158 153 158 181 169 160 170 172 157 168 157 123 152 137 133 126 123 112 106 106 105 109 109 116 139 144 187 174 166
204 215 225 230 229 229 222 228 216 220 216 209 168 207 219 228 162 201 189 218 230 226 219 165 220 222 326 65 132 131 136 148 158 161 163 165 168 168 171 169 168 168 170 170 170 169 166 168 170 168 167 168 166 166 166 161 155 168 168 162 165 159 158 159 161 167 168 162 167 153 178 176 177 162 176 162 180 158 161 165 161 156 140 134 125 125 117 114 113 111 130 146 168 206 215 215 170
206 217 223 233 221 232 233 224 218 203 198 234 173 195 210 230 183 162 215 205 206 214 217 195 187 168 161 146 146 146 147 157 165 173 170 172 176 177 173 170 172 165 168 169 169 169 169 168 171 170 168 167 166 168 165 161 160 173 173 166 160 160 161 168 172 173 177 176 181 180 183 183 183 166 174 165 176 162 154 170 167 166 159 144 139 126 123 121 134 157 172 197 213 215 223 219 215
215 223 225 230 235 239 225 219 213 210 219 235 160 175 214 136 196 130 227 206 196 220 211 192 211 186 173 155 155 157 167 175 177 177 177 178 182 178 177 171 168 166 164 166 164 167 172 171 173 170 165 167 168 168 167 165 165 175 170 170 163 170 166 178 174 176 182 175 179 179 184 179 182 175 146 157 148 169 144 176 176 173 169 164 158 181 164 168 193 198 194 215 220 221 222 208 222
200 227 230 231 223 237 203 213 209 204 230 202 183 144 171 170 188 204 182 230 220 225 226 241 174 168 177 167 172 166 174 184 185 183 183 183 187 176 180 175 166 161 161 157 162 168 173 171 170 171 166 168 173 169 168 170 168 175 173 169 171 169 172 173 174 176 179 176 180 180 186 180 183 173 170 171 183 171 166 178 180 188 184 182 185 214 193 160 206 189 184 205 222 214 228 246 276
214 225 232 240 236 229 205 214 222 226 188 218 201 201 202 152 203 207 217 234 222 206 107 190 272 306 235 179 179 173 178 189 190 188 187 188 181 177 175 174 161 159 152 160 163 166 173 172 172 171 170 173 174 173 176 168 171 176 170 171 170 170 172 171 173 176 177 176 181 179 180 185 185 173 176 174 184 171 174 178 184 179 185 182 183 209 189 183 202 203 219 208 199 213 210 250 251
229 222 230 234 237 242 221 222 214 215 201 211 219 228 244 199 221 220 231 235 249 68 332 300 286 292 292 200 178 178 181 191 191 193 188 189 180 180 177 175 166 162 162 160 163 167 171 175 177 171 174 174 176 177 175 167 176 176 169 172 171 168 170 169 172 177 172 172 184 176 175 185 187 175 177 177 175 175 182 178 185 173 185 188 181 217 179 192 234 211 218 221 223 232 237 218 221
226 232 214 228 230 230 234 229 207 215 227 225 225 232 229 216 232 223 235 237 255 283 297 286 293 288 270 199 185 185 185 190 192 192 191 186 181 181 178 178 169 159 166 159 161 170 173 176 178 174 177 174 178 176 175 175 175 174 169 163 171 161 168 167 173 176 165 174 181 176 181 183 182 177 175 176 173 186 178 187 183 179 190 190 176 230 188 201 214 228 246 242 239 232 225 224 257
220 230 225 223 224 229 235 232 228 227 230 231 232 228 221 231 243 240 236 244 250 262 278 281 284 266 230 188 185 184 184 186 186 188 185 177 183 176 181 182 171 168 169 164 166 170 175 175 178 178 174 177 177 178 176 178 172 173 164 168 173 159 173 169 176 170 177 171 174 172 176 181 180 175 174 171 172 180 171 180 188 183 189 188 179 209 216 200 214 220 218 240 224 250 248 239 247
222 227 226 223 230 224 227 234 234 232 233 224 231 234 240 240 237 248 250 249 256 261 267 270 276 244 206 185 181 180 185 186 181 180 178 176 177 177 182 183 178 183 171 166 172 171 172 178 180 177 175 179 177 181 179 177 174 171 169 173 165 172 165 174 170 176 181 169 165 166 169 180 183 170 164 162 166 165 168 174 187 180 184 188 195 197 205 208 208 206 229 248 263 242 267 265 270
210 220 226 227 224 226 222 230 230 230 232 221 229 234 236 230 217 239 231 241 239 240 245 241 237 228 207 181 174 183 181 183 179 172 176 178 175 180 182 184 184 181 171 176 178 174 173 178 182 178 180 180 176 181 181 177 178 174 172 171 168 173 164 164 177 178 173 171 158 158 165 171 177 164 158 160 153 157 162 168 180 171 180 182 197 194 196 212 210 226 246 272 269 286 278 283 278
219 229 220 228 228 232 231 227 233 228 230 229 234 242 242 232 209 233 228 178 209 214 221 229 238 229 197 181 174 178 182 180 175 175 181 180 181 184 184 187 187 180 183 180 173 177 169 180 184 181 180 182 179 181 180 178 180 176 169 173 171 171 165 171 178 179 172 164 156 160 167 168 178 160 158 162 155 157 161 169 165 177 172 172 195 196 190 210 214 219 240 255 285 288 286 286 289
226 213 218 221 226 234 227 227 217 216 231 215 222 246 242 230 227 213 233 209 187 216 231 240 236 226 199 176 171 179 183 178 177 182 187 185 183 186 186 192 186 181 184 175 172 176 172 183 184 183 182 183 183 181 179 179 179 176 171 172 169 164 170 176 181 178 171 156 157 168 167 173 183 165 165 171 167 165 157 167 167 174 168 179 176 190 202 212 223 218 222 260 266 272 284 277 279
223 221 237 225 216 230 223 223 225 212 215 185 180 228 230 228 225 222 219 225 230 236 238 239 231 222 198 177 171 180 185 181 185 188 188 189 188 188 188 187 184 186 173 174 172 178 175 185 184 183 184 183 186 182 180 178 178 176 176 175 164 164 173 180 178 178 167 159 163 171 171 177 186 171 170 171 186 167 168 178 173 176 176 169 175 187 208 222 225 246 255 259 264 270 272 283 279
213 212 219 232 224 228 208 213 210 220 194 194 200 241 242 232 215 202 216 219 219 229 232 233 225 214 200 178 175 178 186 188 188 189 189 191 193 189 190 183 190 189 171 173 174 176 178 180 184 183 185 184 186 183 183 181 175 177 178 172 170 170 174 177 179 176 169 166 166 170 180 177 188 178 176 177 184 178 176 178 182 179 168 177 183 188 234 227 228 265 304 289 289 274 278 285 302
208 205 214 215 230 219 201 199 205 209 194 197 203 241 240 212 170 188 204 207 209 220 223 223 220 214 202 181 176 180 185 186 188 192 190 192 194 186 189 190 190 189 176 171 170 176 183 183 185 183 183 185 185 183 184 183 178 175 179 173 170 172 172 178 178 176 171 169 170 171 184 181 187 181 178 180 184 188 184 181 189 170 166 179 185 172 219 231 312 278 286 288 296 295 294 296 306
204 217 212 210 209 220 178 195 203 205 203 196 207 229 210 235 216 185 179 191 201 214 216 215 215 213 207 185 178 178 179 182 189 192 191 193 193 190 192 192 190 188 175 168 174 181 184 188 183 183 183 187 186 184 184 181 180 177 179 175 167 163 168 177 175 171 176 174 179 175 180 182 186 183 184 179 192 189 193 190 172 161 177 189 173 186 203 210 237 302 301 308 298 302 312 325 305
203 205 225 211 207 205 222 164 196 192 205 205 202 226 234 256 205 206 197 193 198 213 215 214 213 208 208 197 181 177 181 182 189 190 191 192 193 194 192 193 191 190 184 176 179 184 184 186 188 187 182 187 185 187 186 180 180 175 176 170 167 170 175 178 172 174 178 182 179 180 177 179 185 182 182 178 184 191 185 186 159 173 184 189 179 198 187 207 284 292 298 281 304 313 312 320 323
199 192 209 214 210 208 206 181 181 188 197 214 199 216 226 231 207 179 211 211 208 209 211 210 209 206 202 202 196 183 183 190 190 189 189 191 194 195 193 191 189 190 187 184 187 189 187 186 187 189 186 185 186 186 185 181 176 172 169 169 168 176 176 182 174 181 180 181 183 178 176 178 182 181 178 174 171 181 175 170 173 179 192 191 190 200 183 189 250 277 291 302 299 307 318 323 333
211 200 201 210 199 195 207 201 162 187 188 207 207 209 215 225 225 220 177 186 215 216 211 208 207 204 200 202 201 195 193 191 183 185 186 189 193 193 194 191 193 193 192 187 192 190 192 184 186 187 189 186 185 184 181 183 182 173 170 172 180 180 184 182 178 184 180 181 183 180 179 182 179 180 180 177 173 179 172 170 174 192 191 203 195 211 213 199 243 290 313 318 314 310 301 316 335
225 205 203 203 201 203 199 214 167 192 203 208 212 212 213 224 223 223 227 208 204 215 218 215 207 204 198 199 203 202 203 195 171 178 183 189 193 190 195 194 194 196 193 191 194 193 193 189 184 187 185 185 187 184 184 182 184 181 178 182 185 182 191 179 180 185 184 182 182 182 184 183 181 181 183 182 181 175 179 178 182 202 203 207 203 221 236 294 348 324 318 311 312 314 325 342 354
213 196 198 201 209 212 189 208 195 191 214 205 211 217 215 225 221 222 221 221 211 209 210 211 211 206 201 203 203 202 202 188 169 177 183 188 194 194 193 195 193 193 194 193 197 195 194 191 187 187 184 184 189 188 183 184 182 184 186 188 190 187 183 183 181 185 188 181 185 181 187 182 185 183 185 186 184 185 178 187 192 199 206 201 206 199 213 212 301 315 320 303 309 321 323 8 10
212 204 196 213 202 220 173 207 195 191 211 228 201 215 219 223 224 219 219 218 216 209 210 207 210 209 207 205 203 202 195 189 182 183 185 193 193 194 196 195 197 197 197 198 197 197 193 191 191 189 186 185 189 190 188 186 182 181 183 188 199 188 189 188 184 186 185 182 186 184 184 185 187 185 183 184 186 185 190 194 191 195 204 190 203 202 197 238 333 342 349 338 329 322 322 48 9
213 215 210 204 196 193 188 200 194 197 208 220 209 216 222 225 225 223 217 217 215 208 209 211 212 210 208 206 203 200 196 190 186 187 191 195 196 196 196 196 196 197 199 200 198 196 191 191 190 190 185 186 186 186 189 172 173 175 187 190 203 197 188 187 188 188 187 188 187 188 182 187 186 185 182 183 182 174 191 196 189 194 188 195 215 207 203 248 56 331 353 347 329 309 343 1 15
220 229 224 214 194 199 220 174 186 193 208 234 228 219 229 220 217 211 210 213 216 210 208 212 210 214 209 207 207 203 200 194 191 191 191 196 199 200 199 198 197 201 202 199 196 191 189 189 187 188 186 191 188 182 185 175 166 167 189 198 197 193 183 189 194 190 192 191 190 188 183 185 184 184 180 179 169 169 194 199 194 194 196 183 197 204 253 14 355 8 34 343 345 338 330 343 348
205 216 226 217 202 183 209 139 168 177 203 201 211 215 223 214 222 214 193 197 211 210 203 204 204 205 204 208 208 204 207 205 198 191 191 195 200 201 199 202 203 204 203 198 188 188 182 184 183 142 154 194 200 184 181 171 168 177 186 190 184 185 190 194 194 190 187 189 191 187 184 182 184 174 175 175 162 173 193 193 191 192 176 174 182 216 138 113 38 61 30 340 351 7 336 324 339
202 194 209 222 200 195 193 175 187 198 213 188 204 230 222 199 214 209 206 198 201 204 207 203 203 204 205 204 202 205 208 206 203 195 191 191 197 199 203 206 207 205 202 194 174 181 155 108 154 182 189 184 190 186 181 176 175 185 189 191 187 185 189 195 195 192 188 188 188 186 182 182 180 170 176 169 166 178 188 188 176 183 168 172 149 167 159 10 32 43 10 8 340 340 338 324 346
207 177 188 202 198 201 203 207 211 231 212 126 191 216 246 204 208 205 199 199 196 201 203 205 202 202 204 200 202 204 205 204 202 200 195 196 195 201 207 210 209 208 196 181 173 144 139 180 187 173 175 186 187 181 181 178 176 184 187 188 184 187 195 195 194 193 191 186 186 182 178 179 175 173 170 164 171 184 178 178 171 170 169 158 159 119 73 70 67 68 51 0 351 355 347 343 344
195 165 181 193 206 201 206 208 210 225 222 202 198 209 228 237 183 188 190 198 199 200 198 200 201 199 199 199 202 204 204 204 203 200 199 196 197 200 205 206 208 206 191 182 170 148 184 176 170 172 182 186 184 180 182 184 185 181 185 187 187 190 192 196 195 196 191 185 182 178 182 170 170 175 174 168 175 182 177 172 167 169 167 159 130 128 90 64 58 38 10 3 7 357 9 359 324
196 160 176 179 184 183 196 206 214 210 212 228 202 191 220 217 208 175 189 206 202 199 195 197 195 196 198 198 200 202 202 205 206 208 204 199 197 196 199 202 204 204 191 173 152 175 185 166 180 179 180 181 178 183 187 186 187 179 179 187 185 182 182 192 197 191 189 184 181 176 178 176 174 174 172 172 176 186 178 170 173 166 156 141 83 73 92 97 65 53 32 14 18 358 36 23 7
172 182 179 172 176 189 198 225 221 205 224 226 219 190 213 228 204 210 185 202 203 194 194 194 194 197 198 199 200 201 202 203 205 208 205 198 189 190 187 198 201 196 177 171 159 182 184 178 180 184 185 180 177 178 184 184 183 182 182 180 184 179 177 186 190 188 187 180 183 177 180 177 176 170 162 169 179 189 166 172 161 157 128 119 119 127 81 48 42 44 69 75 60 24 42 37 52
166 193 186 166 175 184 196 207 219 229 233 217 217 202 200 229 203 206 197 185 193 196 194 190 192 196 198 198 200 200 202 202 202 203 199 191 181 184 184 197 198 191 183 174 167 186 186 181 182 187 188 182 178 177 182 183 182 183 177 162 143 124 179 182 183 183 182 180 179 181 182 169 171 159 165 171 174 163 161 157 156 151 144 145 121 97 70 92 61 38 59 41 70 79 78 76 48
186 186 191 179 170 173 194 196 204 216 225 209 202 192 198 225 237 145 187 179 188 191 192 194 193 195 198 198 199 199 198 201 198 199 194 185 184 182 184 195 197 195 186 181 181 185 187 182 184 187 189 188 180 180 180 181 176 177 173 159 163 166 188 189 188 187 187 181 179 177 178 179 172 163 160 171 171 163 159 158 164 157 150 140 117 107 89 59 55 70 71 80 90 88 72 55 53
193 188 184 186 177 181 195 199 206 211 197 69 209 185 230 219 228 226 193 177 191 193 200 193 192 199 200 200 198 196 194 198 197 195 191 188 182 177 181 193 197 197 183 186 181 180 187 190 186 189 191 189 185 182 178 172 175 179 175 172 168 166 179 190 188 185 183 183 178 190 190 188 179 174 172 173 172 168 159 163 157 150 136 126 126 105 84 71 71 116 119 120 118 107 88 65 45
193 193 188 195 193 185 188 196 194 201 182 161 172 184 225 211 199 197 209 193 184 192 200 204 203 197 199 201 192 189 194 199 200 194 193 184 176 173 178 192 200 197 185 184 191 190 187 193 192 192 190 187 188 184 171 171 182 183 181 170 158 163 168 174 175 178 181 185 182 189 193 182 180 176 166 168 184 167 154 158 151 146 141 139 123 116 106 107 123 124 126 127 109 89 74 54 47
192 195 194 200 203 183 202 199 214 192 172 167 177 198 183 185 75 140 183 205 207 197 197 195 196 199 183 185 187 197 203 206 200 196 192 184 176 177 181 194 201 197 191 194 195 192 193 193 193 192 191 187 185 178 175 176 185 184 172 159 165 161 165 163 150 159 186 195 190 188 178 161 141 154 149 180 168 154 155 152 151 145 141 136 132 130 136 131 135 135 134 126 114 105 83 50 43
179 196 201 198 201 189 179 73 37 91 166 200 167 216 239 322 199 188 175 188 197 197 202 201 205 205 199 203 204 205 203 203 199 197 191 178 173 177 185 195 198 199 194 195 192 192 190 190 190 190 185 172 169 165 175 177 162 148 138 110 130 142 155 174 171 181 189 191 185 172 160 149 172 176 179 173 164 151 149 148 146 146 141 148 138 130 132 132 138 137 134 125 103 87 74 70 66
174 198 192 142 331 224 183 189 140 200 194 185 173 200 206 219 184 164 174 192 188 196 203 208 211 208 203 206 207 202 200 198 194 190 182 175 172 175 183 195 197 196 189 184 189 183 186 184 192 151 152 138 128 126 116 98 84 95 120 156 174 166 168 181 183 179 184 189 186 171 135 155 196 161 142 159 155 143 134 140 152 147 146 140 130 131 133 137 140 136 131 121 105 117 106 98 82
198 199 173 191 178 193 201 220 176 192 205 194 193 211 216 200 177 157 173 190 184 188 192 193 196 199 202 201 199 195 189 182 177 176 172 171 171 176 181 189 192 187 169 175 174 174 177 170 93 105 131 112 122 115 111 123 149 162 170 168 173 155 171 197 195 180 170 169 177 162 170 152 112 108 132 162 159 135 136 150 148 143 142 140 139 136 140 143 143 134 133 120 125 123 100 96 88
214 196 200 203 209 205 183 198 181 195 200 206 191 188 210 187 207 180 152 173 179 182 179 188 193 194 192 186 181 178 175 173 170 172 172 171 173 176 181 182 183 175 174 172 169 166 160 128 148 152 141 142 141 147 153 160 168 159 157 157 152 136 154 176 174 165 169 162 155 125 114 126 142 149 157 173 167 140 143 145 155 148 145 146 144 143 146 145 145 132 129 129 126 114 113 105 99
189 198 191 190 232 198 205 183 227 192 198 196 183 186 210 192 204 212 200 125 149 169 177 178 181 168 171 169 168 168 167 165 167 168 169 169 172 175 176 178 170 164 171 165 160 160 145 151 159 154 147 150 153 156 159 166 163 159 151 152 161 165 163 152 150 168 164 153 127 114 122 137 144 175 140 177 176 141 147 146 150 155 150 150 149 149 149 149 142 137 134 127 125 121 118 109 107
192 194 190 189 186 179 195 180 212 235 204 188 210 219 162 156 185 201 207 111 114 71 117 143 150 159 163 159 161 159 160 163 164 165 165 169 172 171 169 170 165 165 166 161 160 159 153 165 167 156 156 156 154 158 166 167 168 162 165 168 165 161 160 150 149 167 174 178 157 127 139 150 160 161 146 172 172 148 144 144 150 149 149 154 157 149 150 150 143 141 134 129 120 118 112 108 103